Regional Weather Roundup
Issued by NWS

Home | Current Version | Previous Version | Graphics & Text | Print | Product List | Glossary On
Versions: 1 2 3 4 5 6 7 8 9 10 11 12 13 14 15 16 17 18 19 20 21 22 23 24 25 26 27 28 29 30 31 32 33 34 35 36 37 38 39 40 41 42 43 44 45 46 47 48 49 50
000
ASUS43 KOAX 012202
RWRNE
OMARWRNE ALL

WEATHER ROUNDUP FOR NEBRASKA
NATIONAL WEATHER SERVICE OMAHA NE
500 PM CDT MON JUN 01 2015

NOTES: SATELLITE DATA IS BEING USED TO AUGMENT CLOUD COVER ABOVE
       12000 FEET.
       "FAIR" INDICATES FEW OR NO CLOUDS BELOW 12,000 FEET WITH NO
       SIGNIFICANT WEATHER AND/OR OBSTRUCTIONS TO VISIBILITY.

  * THESE STATIONS DO NOT REPORT WEATHER SUCH AS RAIN...SNOW OR FOG.

NEZ001>004-019>022-054>056-012300-
NEBRASKA PANHANDLE

CITY           SKY/WX    TMP DP  RH WIND       PRES   REMARKS
SCOTTSBLUFF    PTSUNNY   80  57  45 SE9       29.91F
ALLIANCE       MOSUNNY   80  61  52 S22G28    29.94F
CHADRON        SUNNY     84  61  45 S16       29.86F
KIMBALL          N/A    N/A N/A N/A MISG        N/A
SIDNEY         MOSUNNY   82  57  42 SE15G24   29.97F
$$

NEZ057>060-069>072-079>082-012300-
SOUTHWEST NEBRASKA

CITY           SKY/WX    TMP DP  RH WIND       PRES   REMARKS
NORTH PLATTE   SUNNY     77  62  59 SE10      29.98F
IMPERIAL       SUNNY     81  61  50 SE20G25   29.96F
LEXINGTON      SUNNY     74  62  66 SE18      30.01F
MCCOOK         MOSUNNY   82  61  48 S18G26    29.97F
$$

NEZ005>010-023>029-035>040-094-012300-
NORTH CENTRAL NEBRASKA

CITY           SKY/WX    TMP DP  RH WIND       PRES   REMARKS
VALENTINE      SUNNY     83  59  44 S21G30    29.92F
AINSWORTH      SUNNY     80  62  54 S17G24    29.96F
BROKEN BOW     MOSUNNY   76  60  57 S20G28    30.00F
O`NEILL        MOSUNNY   78  60  53 S17G24    30.00S
ORD            MOSUNNY   77  57  50 SE16G25   29.99F
$$

NEZ041-046>049-061>064-073>077-083>087-012300-
SOUTH CENTRAL NEBRASKA

CITY           SKY/WX    TMP DP  RH WIND       PRES   REMARKS
GRAND ISLAND   PTSUNNY   76  56  49 S16       30.03F
HASTINGS       CLOUDY    73  57  57 S10G24    30.04F
KEARNEY *      CLOUDY    72  57  60 S17G24    30.04S
$$

NEZ011>018-030>034-042>045-012300-
NORTHEAST NEBRASKA

CITY           SKY/WX    TMP DP  RH WIND       PRES   REMARKS
NORFOLK        SUNNY     79  53  40 SE18G25   30.02F
COLUMBUS *     SUNNY     79  52  38 SE13G20   30.05F
FREMONT        SUNNY     75  51  41 SE16G25   30.06F
TEKAMAH        SUNNY     78  51  38 SE13G22   30.06F
$$

NEZ050>053-065>068-078-088>093-012300-
SOUTHEAST NEBRASKA

CITY           SKY/WX    TMP DP  RH WIND       PRES   REMARKS
LINCOLN        SUNNY     76  55  48 SE14      30.06F
OMAHA EPPLEY   MOSUNNY   74  52  46 SE14G21   30.08F
FALLS CITY     SUNNY     73  53  49 E9        30.09F
PLATTSMOUTH    SUNNY     73  50  44 SE14      30.09F
$$

NEZ044-045-051>053-067-012300-
OMAHA AREA

CITY           SKY/WX    TMP DP  RH WIND       PRES   REMARKS
OMAHA EPPLEY   MOSUNNY   74  52  46 SE14G21   30.08F
FREMONT        SUNNY     75  51  41 SE16G25   30.06F
OFFUTT AFB     SUNNY     74  54  48 SE10      30.07F
PLATTSMOUTH    SUNNY     73  50  44 SE14      30.09F
$$



USA.gov is the U.S. government's official web portal to all federal, state and local government web resources and services.